Temp
11 11 11 11 12 11 11 11 11 11 11 11 11 11 11 11 10 10 10 10 10 10 10 10 11 10 10 10 10 10 10 11 11 11 11 11 11 11 11 11 11 11
11 11 11 11 12 12 12 11 11 11 11 11 11 11 11 11 10 10 10 10 10 10 10 10 10 11 10 10 10 10 10 11 11 11 11 11 11 11 11 11 11 11
12 11 11 12 12 12 12 12 12 11 11 11 11 11 11 10 10 10 10 10 10 10 10 10 10 11 11 10 10 10 10 11 11 11 11 11 11 11 11 11 11 11
12 12 12 12 12 12 12 12 12 12 11 11 11 11 11 11 11 11 11 11 10 10 10 10 10 11 11 11 11 11 10 11 11 11 11 11 11 11 11 12 12 11
12 12 12 12 12 12 12 12 12 12 11 11 11 11 11 11 11 11 11 11 11 11 10 10 10 11 11 11 11 11 10 10 11 11 11 11 11 11 11 12 12 12
12 12 12 12 12 12 12 12 12 12 12 11 11 11 11 11 11 11 11 11 11 11 11 11 10 11 11 11 11 11 11 10 10 11 11 11 11 11 11 12 12 12
13 12 12 12 12 12 12 12 12 12 12 12 11 11 11 11 11 11 12 12 12 11 11 11 11 11 11 11 11 11 11 11 10 11 11 11 11 11 11 11 12 12
13 12 12 12 12 12 12 12 12 12 12 12 12 11 11 11 11 11 12 12 12 12 12 12 11 11 11 11 11 11 11 11 10 10 11 11 11 11 11 11 11 12
13 13 12 12 12 12 12 12 12 12 12 12 12 12 11 11 11 12 12 12 12 12 12 12 12 11 11 11 11 11 11 11 11 10 10 10 10 11 11 11 12 12
13 13 13 13 13 13 13 13 12 12 12 12 12 12 12 12 12 12 12 12 12 12 12 12 12 12 11 11 11 11 11 11 11 11 11 11 11 11 11 11 11 12
13 13 13 13 13 13 13 13 13 12 12 12 12 12 12 12 12 12 12 12 13 13 12 12 12 12 12 12 11 11 11 11 11 11 11 11 11 11 11 11 11 12
13 13 13 13 13 13 13 13 13 13 13 12 12 12 12 12 12 12 12 12 13 13 12 12 12 12 12 12 12 12 11 11 11 11 11 11 11 11 11 11 12 12
13 13 13 13 13 13 13 13 13 13 13 13 13 13 12 12 12 12 12 12 12 13 12 12 12 12 12 12 12 12 12 12 12 12 12 12 12 11 11 11 12 12
13 13 13 13 13 13 13 13 13 13 13 13 13 13 13 13 13 13 12 12 12 12 12 12 12 12 12 12 12 12 12 12 12 12 12 12 12 12 12 12 12 12
14 13 13 13 13 13 13 13 13 13 13 13 13 13 13 13 13 13 13 12 12 12 12 12 12 12 12 12 12 12 12 12 12 12 12 12 12 12 12 12 12 12
14 14 13 13 13 13 13 13 13 13 13 13 13 13 13 13 13 13 13 13 13 13 13 13 13 13 12 12 12 12 12 12 12 12 12 12 12 12 12 12 12 12
14 14 14 14 13 13 13 13 13 13 13 13 13 13 13 13 13 13 13 13 13 13 13 13 13 13 13 13 13 12 12 12 12 12 12 12 13 13 13 13 12 12
14 14 14 14 14 14 14 14 14 14 13 13 13 13 13 13 13 13 13 13 13 13 13 13 13 13 13 13 13 13 13 13 13 13 13 13 13 13 13 13 13 13
14 14 14 14 14 14 14 14 14 14 14 14 14 14 13 13 13 13 13 13 13 13 13 13 13 13 13 13 13 13 13 13 13 13 13 13 13 13 13 13 13 13
14 14 14 14 14 14 14 14 14 14 14 14 14 14 14 14 14 14 13 13 13 14 14 14 14 13 13 13 13 13 13 13 13 13 13 13 13 13 13 13 13 13
14 14 14 14 14 14 14 14 14 14 14 14 14 14 14 14 14 14 14 14 14 14 14 14 14 14 14 13 13 13 13 13 13 13 13 13 13 14 13 13 13 13
14 14 14 14 14 14 14 14 14 14 14 14 14 14 14 14 14 14 14 14 14 14 14 14 14 14 14 14 14 13 13 13 13 14 14 14 14 14 14 13 13 13
15 15 15 14 14 14 14 14 14 14 14 14 14 14 14 15 15 15 14 14 14 14 14 15 14 14 14 14 14 14 14 14 14 14 14 14 14 14 14 13 13 13
15 15 15 15 15 15 15 15 14 14 14 14 14 14 14 14 14 14 15 15 15 15 15 15 15 14 14 14 14 14 14 14 14 14 14 14 14 14 14 13 13 13
15 15 15 15 15 15 15 15 15 15 14 14 14 14 14 14 14 14 15 15 15 15 15 15 15 14 14 14 14 14 14 14 14 14 14 14 14 14 14 13 13 13
15 14 14 14 14 14 14 14 14 14 15 15 15 15 15 15 14 15 15 14 14 15 15 15 15 15 14 14 14 14 14 14 14 14 14 14 14 14 14 14 14 13
Height
3199 3201 3203 3205 3207 3210 3212 3213 3215 3217 3219 3221 3223 3225 3227 3228 3229 3231 3232 3233 3234 3235 3235 3237 3238 3239 3240 3240 3241 3242 3242 3243 3244 3244 3245 3246 3246 3246 3247 3246 3246 3247
3197 3199 3201 3203 3205 3208 3210 3212 3214 3216 3218 3220 3222 3223 3225 3226 3227 3229 3230 3231 3232 3233 3234 3235 3236 3237 3238 3239 3240 3241 3242 3242 3243 3244 3245 3245 3246 3246 3246 3247 3247 3247
3195 3197 3199 3201 3203 3206 3209 3211 3212 3214 3216 3218 3220 3221 3223 3224 3225 3226 3228 3229 3230 3231 3232 3233 3234 3235 3237 3238 3239 3240 3241 3242 3242 3243 3244 3244 3245 3246 3246 3246 3247 3247
3194 3196 3198 3200 3202 3205 3207 3209 3211 3212 3214 3216 3218 3220 3221 3222 3223 3224 3226 3227 3228 3229 3230 3231 3232 3233 3235 3236 3237 3239 3240 3240 3241 3242 3243 3243 3244 3245 3245 3246 3246 3247
3192 3194 3197 3199 3200 3203 3204 3206 3209 3211 3213 3215 3216 3218 3219 3220 3221 3222 3224 3225 3226 3227 3228 3229 3230 3231 3233 3234 3236 3237 3238 3239 3240 3241 3242 3242 3243 3244 3244 3245 3246 3246
3190 3192 3195 3197 3199 3200 3202 3205 3207 3209 3211 3213 3214 3216 3217 3218 3219 3221 3222 3223 3225 3226 3227 3228 3229 3230 3231 3232 3234 3235 3237 3238 3238 3239 3240 3241 3242 3243 3243 3244 3245 3245
3187 3190 3192 3195 3197 3198 3200 3203 3205 3206 3209 3210 3212 3213 3215 3216 3217 3219 3220 3222 3223 3224 3225 3226 3227 3228 3229 3230 3232 3233 3235 3236 3237 3237 3238 3239 3240 3241 3242 3243 3244 3244
3185 3187 3190 3192 3194 3196 3198 3200 3202 3204 3206 3207 3209 3211 3212 3214 3215 3217 3218 3220 3221 3222 3223 3224 3225 3226 3227 3228 3230 3231 3233 3234 3235 3236 3237 3238 3239 3240 3241 3241 3242 3243
3183 3185 3187 3189 3191 3194 3196 3198 3200 3202 3204 3205 3207 3209 3210 3212 3214 3215 3216 3217 3219 3220 3221 3222 3223 3224 3225 3226 3228 3229 3231 3232 3233 3234 3235 3236 3237 3238 3239 3240 3240 3241
3180 3182 3184 3186 3189 3191 3194 3196 3198 3200 3201 3203 3205 3206 3208 3210 3212 3213 3214 3215 3216 3218 3219 3220 3221 3222 3223 3224 3226 3228 3229 3230 3231 3233 3234 3235 3236 3237 3237 3238 3238 3239
3177 3180 3182 3184 3187 3189 3192 3194 3196 3197 3199 3201 3202 3204 3206 3208 3209 3211 3212 3213 3215 3216 3218 3219 3219 3220 3221 3222 3224 3226 3227 3229 3230 3231 3232 3233 3235 3235 3236 3236 3237 3238
3174 3177 3179 3182 3184 3187 3189 3192 3193 3195 3197 3199 3201 3202 3204 3206 3207 3208 3210 3211 3213 3215 3216 3217 3218 3219 3220 3221 3222 3224 3225 3227 3228 3230 3231 3232 3233 3234 3235 3235 3236 3237
3172 3175 3177 3180 3182 3184 3187 3189 3191 3193 3195 3197 3199 3200 3202 3203 3205 3206 3208 3209 3211 3213 3214 3216 3217 3217 3218 3219 3221 3222 3224 3226 3227 3229 3230 3231 3232 3232 3233 3234 3235 3235
3170 3173 3175 3178 3180 3182 3185 3186 3188 3190 3192 3194 3196 3197 3199 3201 3202 3204 3206 3207 3209 3210 3212 3214 3214 3215 3217 3218 3219 3221 3223 3224 3226 3227 3228 3229 3230 3231 3232 3232 3233 3234
3168 3171 3173 3175 3178 3180 3182 3184 3186 3188 3190 3192 3193 3195 3197 3198 3200 3202 3203 3204 3206 3208 3209 3211 3212 3213 3215 3217 3218 3220 3222 3223 3224 3226 3227 3227 3228 3229 3230 3230 3231 3232
3166 3168 3171 3173 3175 3177 3180 3182 3184 3186 3188 3189 3191 3193 3195 3196 3198 3199 3200 3202 3204 3205 3207 3208 3209 3211 3213 3215 3217 3219 3220 3221 3222 3224 3225 3225 3226 3227 3227 3228 3229 3229
3163 3166 3168 3170 3172 3175 3177 3179 3182 3184 3185 3187 3189 3191 3192 3194 3195 3196 3198 3200 3201 3203 3204 3205 3206 3209 3211 3213 3215 3216 3218 3219 3220 3221 3222 3223 3223 3224 3225 3225 3226 3226
3161 3163 3165 3168 3170 3172 3175 3177 3179 3181 3183 3185 3187 3188 3190 3192 3193 3194 3196 3198 3199 3200 3201 3202 3204 3206 3209 3210 3212 3214 3215 3217 3218 3219 3220 3220 3221 3221 3222 3222 3223 3223
3159 3161 3163 3166 3168 3170 3172 3174 3176 3178 3180 3182 3184 3186 3188 3189 3191 3192 3194 3195 3197 3198 3199 3201 3202 3204 3206 3208 3210 3211 3213 3214 3215 3216 3217 3218 3218 3219 3219 3220 3220 3220
3157 3159 3162 3164 3166 3168 3170 3171 3173 3175 3177 3179 3181 3183 3185 3186 3188 3190 3192 3193 3194 3196 3197 3198 3200 3202 3204 3205 3207 3209 3210 3211 3212 3213 3214 3215 3215 3216 3216 3217 3217 3218
3155 3157 3160 3162 3164 3166 3167 3168 3170 3172 3174 3176 3178 3180 3181 3183 3185 3187 3189 3191 3192 3194 3195 3196 3198 3200 3202 3203 3205 3206 3208 3208 3209 3210 3211 3211 3213 3213 3214 3214 3215 3215
3152 3155 3157 3159 3161 3163 3164 3166 3168 3170 3172 3174 3175 3177 3179 3181 3182 3184 3186 3188 3189 3191 3192 3193 3196 3198 3199 3201 3203 3204 3205 3205 3206 3207 3207 3208 3210 3211 3211 3212 3212 3212
3150 3152 3154 3156 3158 3160 3162 3164 3166 3168 3170 3172 3173 3174 3176 3178 3179 3181 3183 3185 3187 3188 3189 3191 3193 3195 3197 3198 3200 3201 3202 3202 3203 3204 3204 3205 3206 3208 3208 3209 3209 3209
3147 3149 3151 3153 3155 3157 3159 3161 3164 3166 3168 3169 3170 3172 3174 3176 3177 3179 3181 3182 3183 3185 3186 3188 3190 3192 3194 3195 3197 3198 3198 3199 3200 3200 3201 3202 3203 3204 3205 3205 3206 3206
3144 3146 3148 3150 3152 3154 3157 3159 3161 3163 3165 3166 3168 3170 3171 3173 3175 3176 3178 3179 3181 3182 3183 3185 3187 3189 3191 3192 3193 3195 3195 3196 3196 3197 3198 3199 3200 3201 3202 3202 3202 3203
3142 3144 3146 3148 3150 3152 3154 3156 3157 3159 3161 3163 3165 3167 3168 3170 3172 3173 3175 3176 3178 3179 3181 3182 3183 3185 3187 3188 3190 3191 3192 3192 3193 3193 3194 3195 3196 3197 3198 3198 3199 3199
Wind_Speed
28 29 29 28 28 28 28 28 27 27 25 23 21 18 16 16 16 16 15 14 14 13 14 15 15 15 14 14 14 14 13 12 12 11 10 8 7 6 5 4 3 3
29 28 28 28 28 28 28 28 27 27 25 24 22 20 19 18 18 17 17 16 16 15 15 16 17 17 16 15 15 15 15 14 13 13 12 11 10 9 8 6 5 4
29 29 28 28 27 27 26 26 26 26 25 24 23 21 20 19 19 18 18 18 17 17 16 16 17 18 17 17 16 16 16 16 15 15 14 13 12 11 10 9 7 6
30 29 28 28 27 27 26 26 26 25 25 24 23 22 21 20 20 19 18 19 18 18 18 18 18 18 18 18 18 17 17 17 17 17 16 15 14 13 12 11 9 8
31 30 29 28 28 28 28 27 26 25 25 24 23 23 22 22 21 20 19 19 19 18 19 18 19 19 19 19 19 18 18 18 18 18 17 16 16 15 14 13 11 10
32 31 31 30 29 29 29 28 26 26 25 25 25 25 24 23 22 21 20 19 18 18 19 18 19 19 19 19 19 19 19 19 19 19 18 18 17 16 16 14 13 12
33 32 32 31 31 30 30 28 27 27 26 26 26 26 25 25 23 22 20 18 18 18 18 18 18 18 18 19 19 19 19 19 20 20 19 18 18 18 17 16 15 14
33 33 33 32 32 32 31 29 29 28 27 27 27 27 26 25 24 22 20 18 18 17 17 17 17 18 18 19 19 18 19 19 19 19 19 18 18 18 17 17 17 16
33 33 33 33 33 32 31 30 29 29 28 28 27 27 26 25 24 22 21 19 18 18 17 17 17 18 19 19 19 18 19 19 19 19 19 18 18 17 17 18 18 17
33 34 34 34 33 32 31 30 29 29 29 29 28 27 27 25 24 23 22 21 20 18 17 17 17 18 19 20 19 19 19 19 19 19 18 18 17 17 17 17 17 17
33 34 34 34 33 32 31 30 30 30 30 30 29 28 27 26 25 25 24 23 21 19 18 17 16 18 20 20 19 19 19 18 18 17 16 15 14 14 15 14 14 13
33 34 34 34 33 32 31 30 30 30 30 29 29 28 27 26 26 26 25 24 22 20 19 17 17 18 19 19 19 19 18 18 17 15 14 13 13 12 12 11 11 10
33 33 33 33 33 32 31 30 30 29 29 29 28 28 28 27 27 27 26 25 23 22 20 19 19 19 20 20 20 20 19 18 17 15 14 14 13 12 12 12 11 11
32 32 32 33 32 32 31 30 30 29 29 28 28 29 28 28 27 27 27 26 25 24 22 21 21 21 21 22 22 21 20 18 17 16 15 14 13 13 13 13 12 13
30 30 31 31 32 32 31 30 30 29 28 28 28 28 28 28 27 27 27 27 27 26 25 24 24 23 23 23 23 22 21 19 18 17 15 14 14 13 13 13 13 13
28 29 30 30 30 30 30 30 30 29 28 28 27 27 27 27 27 27 27 27 27 27 27 27 26 25 24 24 24 23 22 21 19 18 16 16 15 14 14 14 14 14
26 27 28 29 29 29 29 29 29 29 29 28 27 27 27 27 27 26 26 26 26 27 27 28 27 26 25 25 25 25 24 23 21 19 19 18 17 16 15 15 16 17
24 25 26 27 28 28 28 28 28 29 29 28 28 27 27 27 27 26 25 25 26 26 27 27 27 27 26 26 25 26 25 24 23 22 21 20 19 18 17 17 18 18
21 22 23 24 25 26 27 27 28 29 29 29 28 27 27 28 27 26 26 25 26 26 26 26 26 26 26 26 26 26 26 26 25 24 23 22 21 20 20 19 19 19
21 21 21 21 21 23 25 27 28 28 28 28 28 28 29 29 28 27 27 26 26 25 25 25 25 25 25 26 26 26 27 27 27 26 25 24 23 22 21 20 20 20
26 25 24 23 22 22 22 24 25 26 26 27 27 28 28 28 28 28 28 27 27 26 25 25 25 24 25 26 26 27 27 28 28 27 27 26 24 22 22 21 21 22
31 30 29 27 25 24 23 22 22 22 23 24 25 26 26 26 26 26 26 26 26 26 26 25 24 24 25 25 26 26 27 28 28 28 28 26 25 23 23 22 23 23
32 32 31 30 29 28 26 24 23 22 22 22 23 23 23 23 23 23 24 24 24 25 25 24 23 24 25 25 25 26 27 28 28 28 28 28 26 25 24 24 25 24
30 31 31 31 31 30 30 29 27 26 25 24 23 23 22 22 21 22 22 22 23 24 24 23 23 23 24 25 25 26 27 28 29 29 29 29 28 27 27 27 26 25
27 28 29 30 30 30 30 31 30 30 29 28 27 25 24 24 23 22 22 22 22 23 24 24 24 24 25 25 25 26 27 28 29 30 31 31 30 30 29 29 28 27
25 25 26 27 27 27 28 29 29 29 30 30 30 29 28 27 26 25 25 24 24 24 24 24 25 25 26 26 27 28 28 30 31 32 32 33 32 32 31 30 30 29
Wind_Direction
209 208 206 205 204 205 203 202 202 204 208 212 216 218 217 218 223 227 229 229 229 230 229 224 219 218 220 218 216 214 214 215 217 218 216 209 201 193 190 179 150 122
209 208 206 204 203 205 205 203 202 203 206 210 212 214 215 217 221 224 226 228 227 226 228 227 221 219 221 220 217 215 215 216 218 221 221 220 212 204 203 197 181 168
209 208 206 203 202 204 205 205 204 203 204 206 208 210 212 215 219 221 223 225 225 224 227 228 225 220 220 221 219 215 215 217 219 220 221 223 219 211 209 203 194 189
209 208 205 202 202 203 204 205 205 204 204 205 207 209 213 216 219 220 221 222 225 226 227 229 228 224 220 221 220 217 217 218 220 220 220 223 223 219 216 209 203 200
209 208 205 203 202 203 205 206 206 206 205 205 207 210 214 219 222 223 222 223 226 228 230 230 231 229 223 221 221 219 218 220 222 223 220 221 223 224 223 218 211 209
209 209 207 204 203 205 207 209 209 209 208 207 209 211 215 219 224 226 226 225 227 231 233 233 233 233 229 225 223 221 221 222 224 225 222 221 222 223 224 223 219 216
210 210 209 207 207 207 209 211 212 212 211 210 210 212 215 218 223 226 227 227 229 232 235 234 233 233 233 231 225 221 222 222 224 226 225 224 225 224 224 225 225 223
211 211 211 211 210 210 211 212 214 214 214 214 213 213 215 217 220 224 226 227 228 231 233 234 231 228 230 231 226 220 219 220 223 226 226 226 228 229 228 228 227 227
213 213 212 213 213 214 213 213 215 216 217 218 217 216 217 217 219 222 226 226 226 227 229 230 227 222 223 225 223 219 216 217 220 223 225 226 228 230 233 233 231 229
215 214 215 215 216 216 216 216 217 218 219 220 220 220 219 218 219 222 225 226 224 223 224 224 221 218 218 219 219 217 216 217 220 223 225 226 227 230 234 237 237 235
216 216 216 217 218 219 219 219 219 220 221 222 222 223 222 220 220 222 225 226 224 221 220 220 216 213 214 216 215 215 216 217 218 219 219 219 220 224 230 236 239 240
217 217 217 218 219 220 221 221 221 222 222 223 224 225 224 223 222 222 225 227 226 222 219 216 213 211 211 210 209 208 207 207 206 204 204 208 211 216 224 232 237 240
218 219 219 219 219 220 221 222 223 223 223 224 225 225 226 225 224 223 225 227 227 224 218 214 212 210 207 204 201 200 198 197 199 201 204 209 213 218 225 232 237 240
220 221 221 221 221 221 222 223 224 224 224 224 224 225 226 226 226 224 223 224 226 225 220 216 213 210 207 203 200 199 199 201 205 209 212 215 218 222 227 233 238 241
221 222 223 223 222 222 223 224 226 226 226 225 225 226 226 227 226 224 223 223 224 225 222 219 216 212 209 206 204 204 206 209 214 217 220 221 223 226 230 235 240 244
220 221 223 223 224 224 225 226 227 228 229 228 227 227 227 227 226 225 224 223 223 224 224 223 220 216 213 211 210 210 213 217 221 224 227 230 232 235 238 243 249 253
216 217 220 222 224 225 226 227 228 230 230 230 229 228 227 228 228 227 226 225 223 224 225 225 224 220 218 216 215 215 219 222 226 229 233 236 238 242 246 251 256 259
210 212 216 219 221 224 225 227 229 230 231 231 230 230 229 229 230 230 230 227 226 225 225 226 226 224 222 221 220 220 223 226 230 233 236 239 243 247 251 255 258 259
203 208 212 215 218 222 224 226 229 230 231 232 232 232 232 232 233 233 232 231 230 228 226 226 226 224 224 223 223 223 226 229 233 236 239 242 245 249 253 256 257 257
205 208 211 213 217 220 222 225 228 230 232 233 233 233 233 234 235 235 235 235 234 233 231 230 228 226 225 225 224 225 227 231 235 239 242 243 245 249 252 254 255 254
213 214 214 215 216 217 220 223 226 228 230 231 232 233 234 235 236 237 237 237 237 237 236 234 231 228 227 226 227 227 230 233 236 239 242 244 246 249 250 251 251 250
217 218 219 219 219 220 221 222 224 225 227 229 231 232 233 234 234 235 235 235 236 237 236 234 232 231 230 229 229 231 233 236 238 241 243 246 247 249 249 249 247 248
218 220 221 223 224 225 226 226 226 227 227 228 230 231 232 232 233 234 235 235 235 236 236 234 232 231 232 231 230 232 235 237 239 242 244 247 248 248 248 247 246 249
219 221 223 224 226 228 229 230 231 231 231 231 232 232 232 234 234 235 235 234 234 235 236 236 234 232 232 231 230 232 234 237 239 242 244 246 247 247 246 246 248 251
216 219 221 223 226 227 229 231 232 233 233 233 234 235 235 235 236 235 235 234 233 233 235 235 234 233 233 232 231 232 233 236 239 242 244 245 245 245 244 245 248 252
209 213 215 219 222 224 226 229 231 233 234 234 235 236 237 237 237 238 238 238 237 236 235 235 235 235 235 235 235 235 235 237 240 242 244 244 245 244 244 245 249 254